Location: Alberweiler
(47.6667°N, 9.6667°E)
Time: 19:19:27
(UTC+00:00)

Daily predictions for brighter satellites

Satellite Brightness Start Highest point End
(mag) Time Altitude Azimuth Time Altitude Azimuth Time Altitude Azimuth
ATLAS 5 CENTAUR R/B 2.1 16:08:56 10° NW 16:13:18 73° SW 16:18:44 10° SSE
Cosmos 1802 Rocket 4.3 16:11:15 10° SSW 16:17:41 78° W 16:24:08 10° N
Cosmos 2344 4.4 16:11:20 10° NW 16:18:07 34° NNE 16:26:23 10° E
Iridium 4 Rocket 3.8 16:14:20 10° SSW 16:19:19 65° W 16:23:54 10° N
SAR-Lupe-4 4.0 16:16:30 10° SE 16:19:51 40° ENE 16:23:14 10° N
ISS -3.5 16:24:36 10° SW 16:27:53 61° SSE 16:30:57 12° ENE
CZ-2D R/B 3.2 16:26:10 10° SE 16:29:07 38° ENE 16:32:05 10° N
Cosmos 407 Rocket 3.7 16:25:21 10° S 16:30:20 50° ESE 16:35:18 10° NNE
COSMOS 2406 4.2 16:25:47 10° N 16:30:28 25° NE 16:35:08 10° E
Cosmos 1833 Rocket 3.5 16:25:03 10° NW 16:30:35 57° WSW 16:36:05 10° S
Cosmos 1484 Rocket 3.7 16:27:54 10° S 16:31:18 47° W 16:34:44 10° NNW
Cosmos 2016 Rocket 4.4 16:25:18 10° SSW 16:31:36 73° W 16:38:00 10° N
Cosmos 1812 3.3 16:30:01 10° SE 16:32:17 21° E 16:34:33 10° NE
IRS-P3 4.4 16:29:14 10° SE 16:34:17 46° ENE 16:39:22 10° N
TIMED 4.4 16:30:16 10° SSW 16:34:31 86° ESE 16:38:49 10° NNE
Tsikada Rocket 4.2 16:29:25 10° N 16:35:52 83° W 16:42:13 10° S
SMAP 3.0 16:36:45 10° SSE 16:41:24 85° ENE 16:46:06 10° NNW
Cosmos 44 Rocket 3.6 16:38:43 10° SSW 16:43:17 49° ESE 16:47:38 12° NE
Cosmos 540 Rocket 3.4 16:40:01 10° NNW 16:45:10 71° ENE 16:50:15 10° SSE
SJ 16-02 2.5 16:42:07 10° SSE 16:45:30 23° E 16:47:54 15° ENE
SPOT 1/Viking Rocket 4.1 16:41:32 10° SE 16:46:13 35° ENE 16:50:55 10° N
Cosmos 1869 2.9 16:43:45 10° S 16:47:13 62° E 16:50:42 10° NNE
YAOGAN 1 3.6 16:44:44 10° ESE 16:48:06 23° ENE 16:51:30 10° NNE
IGS 5A 4.4 16:44:45 10° S 16:48:37 50° W 16:52:30 10° NNW
SL-16 R/B 3.3 16:46:51 10° N 16:52:57 55° WNW 16:59:00 10° SW
Landsat 7 3.7 16:48:55 10° SSE 16:53:34 81° ENE 16:58:15 10° NNW
Cosmos 1763 Rocket 3.5 16:48:22 10° NNW 16:53:37 85° WSW 16:58:45 10° SSE
Spot 4 Rocket 4.5 16:52:31 10° SE 16:57:10 37° ENE 17:01:50 10° N
Nadezhda 4 Rocket 4.3 16:52:57 10° N 16:58:57 44° ENE 17:04:52 10° SE
RESURS DK-1 2.5 16:55:19 10° NNW 16:59:20 75° WSW 17:03:18 10° SSE
Timation 1 Rocket 4.4 16:53:21 10° NNW 16:59:22 87° WSW 17:05:20 10° SSE
Cosmos 1140 Rocket 4.3 16:54:25 10° SW 16:59:27 51° WNW 17:04:29 10° NNE
Aureole 3 Rocket 2.3 16:57:19 10° S 17:00:15 52° E 17:03:27 10° NNE
CZ-4C R/B 3.9 16:58:07 10° WNW 17:01:59 21° NNW 17:06:38 10° NNE
Resurs 1-3 4.3 16:58:38 10° SE 17:02:21 30° ENE 17:06:07 10° N
CZ-4 R/B 4.5 17:01:38 10° SSE 17:05:28 49° ENE 17:09:19 10° N
SJ-6F 4.2 17:01:36 10° SSE 17:05:30 78° ENE 17:09:26 10° N
UNK 4.3 17:01:28 10° N 17:06:01 61° WNW 17:10:32 10° SSW
Cosmos 304 Rocket 4.4 17:04:13 10° SSE 17:08:24 32° ESE 17:10:27 23° ENE
Cosmos 1400 Rocket 3.2 17:06:13 10° SSE 17:09:41 35° E 17:11:08 25° NE
SJ-12 4.1 17:06:14 10° S 17:10:00 65° W 17:13:47 10° NNW
Cosmos 371 Rocket 4.0 17:05:47 10° SSE 17:10:02 32° ESE 17:12:04 23° ENE
Cosmos 1536 Rocket 3.7 17:08:13 10° N 17:12:34 51° ENE 17:16:50 10° SSE
SAR-Lupe-3 4.3 17:13:47 14° N 17:15:54 59° WNW 17:18:29 10° SSW
Helios 1A Rocket 3.4 17:16:48 28° ESE 17:16:48 28° ESE 17:19:13 10° SSE
Okean 2 Rocket 3.4 17:12:53 10° SSE 17:17:01 42° E 17:20:03 17° NNE
Cosmos 489 Rocket 4.4 17:13:14 10° NNW 17:19:27 61° ENE 17:25:35 10° SE
NOAA 6 4.3 17:20:31 10° SE 17:25:20 42° ENE 17:30:10 10° N
SL-12 R/B(2) 4.4 17:18:34 10° SW 17:26:36 82° NW 17:35:47 13° NE
Resurs 01 Rocket 3.4 17:30:11 16° NNE 17:30:11 16° NNE 17:31:27 10° N
COSMO-SKYMED 1 2.7 17:26:49 33° NE 17:28:08 45° E 17:32:05 10° S
Cosmos 1943 Rocket 2.5 17:24:23 10° SW 17:29:58 66° WNW 17:35:17 11° NNE
Timation 2 Rocket 4.5 17:24:31 10° SW 17:31:22 69° WNW 17:38:12 10° NNE
Cosmos 2251 Rocket 3.5 17:28:34 10° SSW 17:33:51 86° WNW 17:38:36 13° NNE
Cosmos 841 Rocket 3.5 17:29:11 10° NNW 17:34:24 60° ENE 17:38:54 14° SE
Cosmos 2058 3.1 17:30:33 10° NNW 17:34:30 66° W 17:38:26 10° S
SJ-7 4.0 17:31:53 10° SSE 17:35:32 69° ENE 17:39:13 10° N
BREEZE-M DEB (TANK) 2.5 17:35:15 10° W 17:37:57 82° NNW 17:39:49 37° ENE
Cosmos 2082 Rocket 2.4 17:33:59 10° NNW 17:39:35 71° WSW 17:45:09 10° SSE
ATLAS 2AS CENTAUR R/B 3.2 17:34:03 10° NW 17:40:23 39° NE 17:42:14 33° ENE
IRAS Rocket 4.1 17:36:59 10° SSE 17:42:34 85° ENE 17:48:06 10° NNW
Cosmos 2278 Rocket 2.8 17:37:57 10° SW 17:43:31 56° WNW 17:48:33 13° NNE
MOS 1 Rocket 4.0 17:40:40 10° S 17:44:52 52° W 17:49:18 10° NNW
Cosmos 1464 Rocket 4.0 17:43:19 10° S 17:49:37 83° W 17:55:53 10° N
ARIANE 5 R/B 4.4 17:45:38 10° SSW 17:49:57 30° W 17:54:20 10° NW
Cosmos 1634 Rocket 4.3 17:44:25 10° SSE 17:57:51 - NNE 17:50:01 40° E
CZ-2D R/B 3.8 17:46:30 10° S 17:50:36 64° WSW 17:54:49 10° NNW
Meteor 2-1 Rocket 4.3 17:45:31 10° S 17:51:19 61° E 17:57:12 10° NNE
Cosmos 2369 Rocket 3.7 17:48:13 10° SSE 17:50:09 19° SE 17:50:09 19° SE
USA 215 4.3 17:47:39 10° SSE 17:53:49 44° SW 18:00:02 10° WNW
PSLV R/B 3.4 17:52:21 10° S 17:56:23 78° WSW 18:00:26 10° NNW
Cosmos 1862 4.1 17:53:23 10° NNW 17:56:53 46° W 18:00:22 10° SSW
Cosmos 2151 Rocket 4.2 17:55:53 10° SSW 18:00:18 56° WNW 18:04:45 10° N
Cosmos 1190 Rocket 4.4 17:56:29 10° SW 18:01:43 61° WNW 18:05:27 19° NNE
Cosmos 2034 Rocket 3.9 17:57:20 10° S 18:03:33 86° E 18:09:52 10° N
ISS -2.3 18:01:32 10° W 18:03:52 35° NW 18:03:52 35° NW
Cosmos 676 Rocket 3.9 17:59:26 10° SSW 18:04:46 89° WNW 18:06:42 41° NNE
Okean 1 Rocket 3.2 18:02:32 10° SSW 18:06:56 73° W 18:08:25 40° N
Cosmos 1656 Rocket 3.5 18:01:57 10° SSW 18:07:26 68° ESE 18:07:59 63° ENE
SKYMED 2 4.4 18:03:51 13° N 18:07:37 50° WNW 18:11:48 10° SW
USA 281 3.3 18:11:28 50° ENE 18:11:48 50° NE 18:18:07 10° NNW
Sich 1 Rocket 4.0 18:08:12 10° SSW 18:12:42 64° WNW 18:14:56 29° N
Cosmos 1954 Rocket 4.5 18:08:57 10° SW 18:14:09 59° WNW 18:16:53 27° N
Cosmos 1932 4.4 18:08:34 10° SSW 18:14:55 78° SE 18:16:22 56° NE
COSMOS 2406 3.4 18:09:36 10° NNW 18:15:16 69° WSW 18:19:01 22° SSE
Cosmos 1092 Rocket 3.8 18:10:47 10° N 18:17:04 82° E 18:23:15 10° S
BlueWalker 3 4.1 18:14:36 10° SSW 18:15:40 17° SSW 18:15:40 17° SSW
Cosmos 2026 Rocket 3.9 18:15:56 10° N 18:22:03 83° W 18:28:13 10° S
Cosmos 968 Rocket 4.4 18:17:19 10° S 18:20:21 36° S 18:20:21 36° S
SJ 16-02 2.5 18:19:22 10° SW 18:23:24 39° WNW 18:24:29 33° NNW
YAOGAN 1 3.8 18:19:46 10° SSW 18:23:45 39° W 18:27:47 10° NNW
Cosmos 2344 3.9 18:25:33 10° NW 18:33:33 88° SW 18:38:34 35° SE
Meteor 2-3 Rocket 4.3 18:32:23 10° NNW 18:37:56 55° W 18:43:23 10° S
CZ-4C R/B 4.2 18:48:17 10° NW 18:51:49 19° N 18:51:49 19° N
Resurs 01 Rocket 4.3 19:07:36 13° NNW 19:07:36 13° NNW 19:08:11 10° NNW
ATLAS 2AS CENTAUR R/B 3.5 19:24:59 10° NW 19:29:41 45° WNW 19:29:41 45° WNW
